TimeCDT,TemperatureF,Dew PointF,Humidity,Sea Level PressureIn,VisibilityMPH,Wind Direction,Wind SpeedMPH,Gust SpeedMPH,PrecipitationIn,Events,Conditions,WindDirDegrees,DateUTC
12:53 AM,62.1,48.0,60,29.86,10.0,ESE,4.6,-,N/A,,Unknown,120,2013-05-16 05:53:00
1:53 AM,60.1,48.0,64,29.86,10.0,NE,8.1,-,N/A,,Clear,50,2013-05-16 06:53:00
2:53 AM,61.0,48.0,62,29.86,10.0,South,4.6,-,N/A,,Clear,170,2013-05-16 07:53:00
3:53 AM,60.1,46.9,62,29.86,10.0,SE,3.5,-,N/A,,Clear,130,2013-05-16 08:53:00
4:53 AM,55.9,46.9,72,29.87,10.0,SSE,4.6,-,N/A,,Clear,150,2013-05-16 09:53:00
5:53 AM,55.0,46.9,74,29.88,10.0,Calm,Calm,-,N/A,,Clear,0,2013-05-16 10:53:00
6:53 AM,57.9,48.9,72,29.90,10.0,ENE,3.5,-,N/A,,Clear,70,2013-05-16 11:53:00
7:53 AM,62.1,51.1,67,29.91,10.0,Calm,Calm,-,N/A,,Clear,0,2013-05-16 12:53:00
8:53 AM,68.0,54.0,61,29.89,10.0,Calm,Calm,-,N/A,,Partly Cloudy,0,2013-05-16 13:53:00
9:53 AM,72.0,54.0,53,29.91,10.0,ESE,6.9,-,N/A,,Overcast,120,2013-05-16 14:53:00
10:53 AM,73.0,55.0,53,29.91,10.0,ESE,8.1,-,N/A,,Overcast,120,2013-05-16 15:53:00
11:53 AM,75.9,53.1,45,29.88,10.0,SE,10.4,-,N/A,,Clear,130,2013-05-16 16:53:00
12:53 PM,78.1,52.0,40,29.86,10.0,SE,10.4,-,N/A,,Clear,140,2013-05-16 17:53:00
1:53 PM,80.1,52.0,38,29.85,10.0,SE,13.8,-,N/A,,Clear,130,2013-05-16 18:53:00
2:53 PM,80.1,54.0,40,29.83,10.0,SE,10.4,-,N/A,,Clear,130,2013-05-16 19:53:00
3:53 PM,81.0,55.0,41,29.82,10.0,South,16.1,21.9,N/A,,Clear,170,2013-05-16 20:53:00
4:53 PM,80.1,55.0,42,29.83,10.0,South,15.0,-,N/A,,Overcast,180,2013-05-16 21:53:00
5:53 PM,79.0,57.9,48,29.81,10.0,South,12.7,-,N/A,,Partly Cloudy,180,2013-05-16 22:53:00
6:53 PM,78.1,57.9,50,29.81,10.0,SSE,6.9,-,N/A,,Partly Cloudy,160,2013-05-16 23:53:00
7:53 PM,75.0,60.1,60,29.83,10.0,SSE,5.8,-,N/A,,Scattered Clouds,150,2013-05-17 00:53:00
8:53 PM,73.0,60.1,64,29.83,10.0,SE,5.8,-,N/A,,Clear,130,2013-05-17 01:53:00
9:53 PM,70.0,60.1,71,29.85,10.0,ESE,4.6,-,N/A,,Scattered Clouds,120,2013-05-17 02:53:00
10:53 PM,70.0,61.0,73,29.84,10.0,East,3.5,-,N/A,,Scattered Clouds,100,2013-05-17 03:53:00
11:53 PM,66.9,61.0,81,29.83,10.0,ESE,5.8,-,N/A,,Clear,110,2013-05-17 04:53:00